EW8682 Weather Reports


Display with metric or nautical units.
time (UTC)temp
F
wind
direction
speed
MPH
gust
MPH
rain 1hr
in
rain 24hr
in
rain mn
in
humidity
%
barometer
mb
20260906204646 69 178 0.0 2.0 0.00 0.69 0.69 92 1005.5
20260906203056 69 178 0.0 2.0 0.00 0.69 0.69 92 1005.8
20260906201543 69 134 0.0 2.0 0.00 0.69 0.69 93 1005.6
20260906200042 69 134 0.0 3.0 0.01 0.69 0.69 93 1006.5
20260906194541 68 50 0.0 8.0 0.02 0.69 0.69 92 1006.2
20260906193043 68 61 2.0 9.0 0.05 0.69 0.69 93 1005.9
20260906191539 68 299 1.0 2.0 0.06 0.69 0.69 93 1006.5
20260906190041 68 227 2.0 5.0 0.06 0.68 0.68 93 1007.6
20260906184538 68 197 1.0 3.0 0.08 0.67 0.67 93 1007.2
20260906183035 68 196 0.0 4.0 0.07 0.64 0.64 93 1007.0
20260906181541 68 127 0.0 0.0 0.07 0.63 0.63 93 1007.2
20260906180048 68 129 0.0 0.0 0.10 0.62 0.62 93 1007.3
20260906174535 68 130 0.0 0.0 0.11 0.57 0.57 93 1008.0
20260906173031 68 130 0.0 0.0 0.16 0.56 0.56 92 1007.6
20260906171527 68 128 0.0 0.0 0.18 0.56 0.56 93 1007.1
20260906170026 67 128 0.0 0.0 0.13 0.51 0.51 92 1006.9
20260906164525 67 128 0.0 1.0 0.08 0.46 0.46 92 1007.1
20260906163022 67 128 0.0 1.0 0.03 0.41 0.41 91 1007.0
20260906161525 67 128 0.0 1.0 0.00 0.38 0.38 91 1006.6
20260906160030 68 128 0.0 2.0 0.00 0.38 0.38 91 1006.3
20260906154520 68 128 0.0 2.0 0.01 0.38 0.38 91 1005.9
20260906153024 68 125 0.0 1.0 0.03 0.38 0.38 90 1005.3
20260906151518 68 125 0.0 2.0 0.04 0.38 0.38 90 1005.2
20260906150015 68 355 0.0 3.0 0.08 0.38 0.38 89 1005.0
20260906144514 67 350 2.0 8.0 0.27 0.37 0.37 88 1004.9
20260906143010 65 53 2.0 10.0 0.28 0.35 0.35 89 1005.1
20260906141516 64 46 4.0 10.0 0.30 0.33 0.33 89 1005.4
20260906140007 63 13 0.0 4.0 0.28 0.28 0.28 87 1005.4
20260906134505 64 198 0.0 3.0 0.10 0.10 0.10 83 1006.2
20260906133001 65 72 0.0 2.0 0.07 0.07 0.07 77 1005.8
20260906131557 67 144 0.0 3.0 0.03 0.03 0.03 69 1006.0
20260906130107 71 167 3.0 8.0 0.00 0.00 0.00 54 1006.7
20260906124550 72 30 0.0 0.0 0.00 0.00 0.00 46 1005.2
20260906123047 72 30 0.0 0.0 0.00 0.00 0.00 44 1004.3
20260906121549 72 30 0.0 2.0 0.00 0.00 0.00 44 1004.0
20260906120045 72 30 0.0 1.0 0.00 0.00 0.00 43 1004.0
20260906114548 71 21 2.0 3.0 0.00 0.00 0.00 43 1004.3
20260906113043 71 40 0.0 3.0 0.00 0.00 0.00 45 1004.2
20260906111600 71 32 0.0 1.0 0.00 0.00 0.00 44 1004.3
20260906110040 72 35 1.0 2.0 0.00 0.00 0.00 44 1004.2
20260906104541 73 22 0.0 2.0 0.00 0.00 0.00 42 1004.4
20260906103039 73 19 1.0 3.0 0.00 0.00 0.00 41 1004.2
20260906101540 73 24 1.0 3.0 0.00 0.00 0.00 41 1004.4
20260906100040 73 19 1.0 3.0 0.00 0.00 0.00 41 1004.4
20260906094536 72 355 0.0 3.0 0.00 0.00 0.00 41 1004.5
20260906093038 72 335 1.0 4.0 0.00 0.00 0.00 41 1004.3
20260906091534 72 341 1.0 3.0 0.00 0.00 0.00 42 1004.4
20260906090031 72 360 1.0 3.0 0.00 0.00 0.00 43 1004.5
20260906084529 71 345 1.0 4.0 0.00 0.00 0.00 45 1004.6
20260906083027 71 347 2.0 4.0 0.00 0.00 0.00 46 1004.7
20260906081523 70 53 1.0 3.0 0.00 0.00 0.00 47 1004.9
20260906080019 69 78 1.0 3.0 0.00 0.00 0.00 50 1005.0
20260906074519 68 167 0.0 2.0 0.00 0.00 0.00 50 1004.8
20260906073019 68 171 0.0 1.0 0.00 0.00 0.00 50 1004.8
20260906071514 68 171 1.0 2.0 0.00 0.00 0.00 50 1004.7
20260906070011 68 173 0.0 2.0 0.00 0.00 0.00 50 1004.8
20260906064510 67 173 1.0 3.0 0.00 0.00 0.00 50 1004.9
20260906063010 68 173 0.0 2.0 0.00 0.00 0.00 49 1005.0
20260906061508 68 173 1.0 2.0 0.00 0.00 0.00 49 1005.0
20260906060012 68 173 1.0 3.0 0.00 0.00 0.00 48 1004.9
20260906054507 69 173 1.0 2.0 0.00 0.00 0.00 46 1004.9
20260906053007 69 173 1.0 2.0 0.00 0.00 0.00 45 1004.9
20260906051507 70 173 0.0 2.0 0.00 0.00 0.00 45 1005.0
20260906050006 71 173 0.0 2.0 0.00 0.00 0.00 43 1005.1
20260906044505 73 173 0.0 2.0 0.00 0.00 0.00 41 1005.2
20260906043013 73 173 1.0 2.0 0.00 0.00 0.00 41 1005.2
20260906041504 73 173 1.0 2.0 0.00 0.00 0.00 41 1005.1
20260906040003 73 173 1.0 3.0 0.00 0.00 0.00 40 1005.0
20260906034502 74 173 1.0 2.0 0.00 0.00 0.00 39 1004.9
20260906033108 74 173 1.0 3.0 0.00 0.00 0.00 38 1004.8
20260906031601 75 173 1.0 3.0 0.00 0.00 0.00 37 1004.6
20260906024613 78 174 2.0 3.0 0.00 0.00 0.00 31 1004.5
20260906023104 80 179 0.0 1.0 0.00 0.00 0.00 28 1004.5
20260906021559 81 180 0.0 4.0 0.00 0.00 0.00 28 1004.4
20260906020058 82 174 1.0 6.0 0.00 0.00 0.00 28 1004.3
20260906014557 84 188 1.0 6.0 0.00 0.00 0.00 26 1004.1
20260906013101 84 186 2.0 9.0 0.00 0.00 0.00 27 1004.1
20260906011556 86 208 3.0 9.0 0.00 0.00 0.00 28 1004.1
20260906010055 85 184 3.0 8.0 0.00 0.00 0.00 32 1004.2
20260906004555 86 203 5.0 9.0 0.00 0.00 0.00 29 1004.1
20260906003055 86 178 3.0 8.0 0.00 0.00 0.00 30 1004.0
20260906001554 87 185 4.0 9.0 0.00 0.00 0.00 27 1004.0
20260906000053 87 169 4.0 10.0 0.00 0.00 0.00 26 1004.0
20260905234554 88 227 5.0 9.0 0.00 0.00 0.00 25 1004.1
20260905233058 89 206 3.0 9.0 0.00 0.00 0.00 24 1004.0
20260905231550 88 213 4.0 11.0 0.00 0.00 0.00 24 1004.1
20260905230052 89 173 4.0 10.0 0.00 0.00 0.00 23 1004.1
20260905224611 89 201 5.0 10.0 0.00 0.00 0.00 21 1004.2
20260905223047 89 211 5.0 11.0 0.00 0.00 0.00 20 1004.4
20260905221544 89 148 5.0 12.0 0.00 0.00 0.00 22 1004.4
20260905220042 89 189 3.0 8.0 0.00 0.00 0.00 22 1004.6
20260905214547 89 186 4.0 8.0 0.00 0.00 0.00 22 1004.7
20260905213041 88 244 4.0 10.0 0.00 0.00 0.00 21 1004.9
20260905211544 88 177 3.0 11.0 0.00 0.00 0.00 22 1004.9
20260905210042 88 155 5.0 11.0 0.00 0.00 0.00 23 1005.1